Location: Hertford
(51.8000°N, 0.0667°W)
Time: 13:08:05
(UTC+00:00)

Meteor 2-5 Rocket - Pass Details

Date: 18 September 2020
Orbit: 833 x 912 km, 81.2° (Epoch: 21 October)

Event Time Altitude Azimuth Distance (km) Brightness Sun altitude
Rises 20:19:50 0° 346° (NNW) 3,412 7.5 -20.3°
Reaches altitude 10° 20:22:14 10° 347° (NNW) 2,480 6.7 -20.6°
Maximum altitude 20:27:53 89° 70° (ENE) 865 3.6 -21.4°
Enters shadow 20:30:31 34° 168° (SSE) 1,397 4.5 -21.7°
